Retour au catalogue

ATLAS CENTAUR R/B

ActifGTO
NORAD 4882·ROCKET BODY·🇺🇸 United States

Lancé Jan 26, 1971 depuis Cape Canaveral Space Force Station

Loading…

Prochains Passages

TLE

Source: Space-Track
1 04882U 71006B   26224.22110983 -.00000107  00000-0  20562-3 0  9995
2 04882  27.4935 237.3898 7185112  87.7084 345.3218  2.20762585444435

Suivez ATLAS CENTAUR R/B en temps réel avec AllMySat

Download on the App Store